EDT,Max TemperatureF,Mean TemperatureF,Min TemperatureF,Max Dew PointF,MeanDew PointF,Min DewpointF,Max Humidity, Mean Humidity, Min Humidity, Max Sea Level PressureIn, Mean Sea Level PressureIn, Min Sea Level PressureIn, Max VisibilityMiles, Mean VisibilityMiles, Min VisibilityMiles, Max Wind SpeedMPH, Mean Wind SpeedMPH, Max Gust SpeedMPH,PrecipitationIn, CloudCover, Events, WindDirDegrees
2013-10-1,91,82,72,76,73,70,100,76,52,30.07,30.02,29.98,10,10,10,14,9,16,0.00,0,,107
2013-10-2,89,80,72,75,73,70,99,78,56,30.07,30.04,29.99,10,10,10,13,10,,0.00,0,,100
2013-10-3,91,82,72,77,73,70,99,76,52,30.09,30.03,29.99,10,10,10,13,8,20,0.00,0,,115
2013-10-4,91,82,74,76,75,72,100,81,54,30.11,30.06,30.02,10,10,10,9,6,,0.00,1,,84
2013-10-5,93,82,72,77,73,71,99,78,51,30.08,30.02,29.96,10,10,10,10,7,,0.00,1,,95
2013-10-6,91,81,72,77,74,70,100,84,55,30.00,29.95,29.89,10,10,10,10,5,,0.00,0,Rain,167
2013-10-7,86,80,75,81,77,73,100,93,77,29.89,29.83,29.76,10,8,0,18,9,26,0.72,4,Fog-Rain,201
2013-10-8,89,82,73,79,76,72,96,85,66,29.98,29.89,29.82,10,10,5,17,8,,0.03,3,Rain,260
2013-10-9,83,75,68,72,70,67,95,86,63,30.07,30.02,29.97,10,10,10,16,8,,0.00,5,,54
2013-10-10,87,76,64,72,68,64,100,82,55,30.08,30.04,29.99,10,10,10,10,7,,0.00,0,,40
2013-10-11,89,76,64,70,67,64,100,77,51,30.07,30.02,29.98,10,10,4,8,4,,0.00,0,,75
2013-10-12,88,76,64,72,65,63,95,70,45,30.07,30.03,30.00,10,10,10,12,5,,0.00,1,,16
2013-10-13,90,76,63,72,64,61,97,71,43,30.11,30.05,30.01,10,10,10,8,5,,0.00,1,,71
2013-10-14,87,76,64,71,67,63,98,77,46,30.07,30.03,29.96,10,10,10,14,6,,0.00,1,,52
2013-10-15,85,75,65,73,70,65,100,89,67,30.03,29.99,29.92,10,10,7,9,6,,0.00,4,,35
2013-10-16,87,76,66,77,71,66,100,89,58,30.00,29.97,29.93,10,10,2,8,4,,0.00,3,,15
2013-10-17,90,78,67,75,71,67,100,83,53,30.01,29.96,29.93,10,10,10,8,4,,0.00,0,,48
2013-10-18,92,81,71,77,74,70,100,84,60,30.01,29.96,29.92,10,10,10,10,5,,0.00,1,,123
2013-10-19,90,80,72,77,74,71,100,85,62,29.98,29.94,29.90,10,10,10,9,4,,0.00,3,,181
2013-10-20,91,82,72,78,75,72,100,86,57,29.98,29.94,29.89,10,9,2,14,3,,0.00,5,,350
2013-10-21,88,80,72,81,76,72,100,90,64,30.03,29.99,29.95,10,10,10,14,7,,0.00,3,,85
2013-10-22,88,78,69,79,74,70,100,93,70,29.97,29.91,29.85,10,9,1,15,4,21,0.33,4,Rain,296
2013-10-23,82,74,68,75,69,51,100,85,42,30.04,29.90,29.83,10,10,10,14,6,18,0.00,5,,341
2013-10-24,71,66,60,56,50,45,86,59,47,30.19,30.12,30.05,10,10,10,13,9,,0.00,1,,52
2013-10-25,83,68,55,60,55,49,97,68,34,30.27,30.21,30.17,10,10,10,9,6,,0.00,0,,28
2013-10-26,80,68,56,61,58,55,98,74,44,30.24,30.18,30.12,10,8,5,14,9,,0.00,0,,39
2013-10-27,82,69,56,61,57,52,100,75,45,30.16,30.12,30.08,10,10,10,13,6,,0.00,0,,61
2013-10-28,85,70,57,62,58,55,97,71,38,30.21,30.16,30.12,10,10,10,12,9,,0.00,0,,48
2013-10-29,86,73,60,70,64,60,100,78,46,30.25,30.20,30.15,10,10,10,14,9,20,0.00,0,,77
2013-10-30,87,76,64,71,67,64,100,80,49,30.25,30.18,30.11,10,10,10,15,10,,0.00,2,,88
2013-10-31,87,76,64,72,69,64,100,83,49,30.15,30.08,30.00,10,10,10,14,7,,0.00,1,,144